| time (UTC) | temp F | wind direction | speed MPH | gust MPH | rain 1hr in | rain 24hr in | rain mn in | humidity % | barometer mb |
| 20260507195552 | 57 | 344 | 6.0 | 17.0 | 0.00 | 0.00 | 0.00 | 35 | 1006.8 |
| 20260507195051 | 57 | 335 | 3.0 | 15.0 | 0.00 | 0.00 | 0.00 | 34 | 1006.9 |
| 20260507194558 | 57 | 301 | 5.0 | 17.0 | 0.00 | 0.00 | 0.00 | 34 | 1006.9 |
| 20260507194052 | 57 | 5 | 5.0 | 17.0 | 0.00 | 0.00 | 0.00 | 35 | 1006.9 |
| 20260507193554 | 57 | 318 | 5.0 | 13.0 | 0.00 | 0.00 | 0.00 | 35 | 1007.0 |
| 20260507193050 | 56 | 5 | 4.0 | 15.0 | 0.00 | 0.00 | 0.00 | 36 | 1007.0 |
| 20260507192551 | 56 | 339 | 4.0 | 15.0 | 0.00 | 0.00 | 0.00 | 35 | 1007.1 |
| 20260507192051 | 56 | 331 | 3.0 | 12.0 | 0.00 | 0.00 | 0.00 | 36 | 1007.1 |
| 20260507191553 | 56 | 311 | 5.0 | 15.0 | 0.00 | 0.00 | 0.00 | 35 | 1007.2 |
| 20260507191052 | 56 | 302 | 3.0 | 15.0 | 0.00 | 0.00 | 0.00 | 36 | 1007.2 |
| 20260507190548 | 57 | 260 | 5.0 | 15.0 | 0.00 | 0.00 | 0.00 | 34 | 1007.3 |
| 20260507190107 | 57 | 355 | 6.0 | 15.0 | 0.00 | 0.00 | 0.00 | 34 | 1007.4 |
| 20260507185551 | 57 | 290 | 6.0 | 15.0 | 0.00 | 0.00 | 0.00 | 34 | 1007.2 |
| 20260507185051 | 56 | 321 | 3.0 | 12.0 | 0.00 | 0.00 | 0.00 | 35 | 1007.2 |
| 20260507184555 | 56 | 344 | 3.0 | 15.0 | 0.00 | 0.00 | 0.00 | 36 | 1007.2 |
| 20260507184051 | 56 | 350 | 6.0 | 16.0 | 0.00 | 0.00 | 0.00 | 35 | 1007.3 |
| 20260507183552 | 56 | 284 | 3.0 | 16.0 | 0.00 | 0.00 | 0.00 | 35 | 1007.3 |
| 20260507183116 | 56 | 283 | 6.0 | 16.0 | 0.00 | 0.00 | 0.00 | 35 | 1007.3 |
| 20260507182550 | 56 | 317 | 7.0 | 15.0 | 0.00 | 0.00 | 0.00 | 35 | 1007.3 |
| 20260507182049 | 56 | 313 | 5.0 | 19.0 | 0.00 | 0.00 | 0.00 | 35 | 1007.3 |
| 20260507181557 | 56 | 336 | 2.0 | 19.0 | 0.00 | 0.00 | 0.00 | 34 | 1007.3 |
| 20260507181052 | 57 | 316 | 6.0 | 17.0 | 0.00 | 0.00 | 0.00 | 33 | 1007.4 |
| 20260507180552 | 56 | 258 | 3.0 | 16.0 | 0.00 | 0.00 | 0.00 | 34 | 1007.4 |
| 20260507180054 | 56 | 320 | 4.0 | 14.0 | 0.00 | 0.00 | 0.00 | 36 | 1007.4 |
| 20260507175552 | 56 | 273 | 2.0 | 14.0 | 0.00 | 0.00 | 0.00 | 36 | 1007.4 |
| 20260507175052 | 56 | 0 | 5.0 | 19.0 | 0.00 | 0.00 | 0.00 | 35 | 1007.4 |
| 20260507174602 | 56 | 302 | 3.0 | 20.0 | 0.00 | 0.00 | 0.00 | 36 | 1007.4 |
| 20260507174051 | 55 | 301 | 4.0 | 20.0 | 0.00 | 0.00 | 0.00 | 37 | 1007.4 |
| 20260507173550 | 55 | 270 | 3.0 | 12.0 | 0.00 | 0.00 | 0.00 | 37 | 1007.2 |
| 20260507173058 | 55 | 323 | 3.0 | 11.0 | 0.00 | 0.00 | 0.00 | 37 | 1007.4 |
| 20260507172551 | 54 | 320 | 3.0 | 13.0 | 0.00 | 0.00 | 0.00 | 39 | 1007.4 |
| 20260507172050 | 55 | 298 | 5.0 | 15.0 | 0.00 | 0.00 | 0.00 | 37 | 1007.4 |
| 20260507171554 | 54 | 23 | 5.0 | 15.0 | 0.00 | 0.00 | 0.00 | 38 | 1007.4 |
| 20260507171050 | 54 | 322 | 4.0 | 15.0 | 0.00 | 0.00 | 0.00 | 39 | 1007.5 |
| 20260507170550 | 54 | 360 | 5.0 | 15.0 | 0.00 | 0.00 | 0.00 | 39 | 1007.7 |
| 20260507170058 | 55 | 302 | 6.0 | 18.0 | 0.00 | 0.00 | 0.00 | 39 | 1007.7 |
| 20260507165548 | 54 | 343 | 5.0 | 18.0 | 0.00 | 0.00 | 0.00 | 40 | 1007.8 |
| 20260507165049 | 54 | 291 | 4.0 | 17.0 | 0.00 | 0.00 | 0.00 | 39 | 1007.8 |
| 20260507164630 | 54 | 342 | 6.0 | 14.0 | 0.00 | 0.00 | 0.00 | 41 | 1007.8 |
| 20260507164052 | 53 | 311 | 6.0 | 21.0 | 0.00 | 0.00 | 0.00 | 42 | 1008.0 |
| 20260507163548 | 53 | 260 | 6.0 | 21.0 | 0.00 | 0.00 | 0.00 | 40 | 1008.1 |
| 20260507163101 | 53 | 333 | 4.0 | 14.0 | 0.00 | 0.00 | 0.00 | 41 | 1008.0 |
| 20260507162549 | 53 | 352 | 4.0 | 14.0 | 0.00 | 0.00 | 0.00 | 42 | 1008.0 |
| 20260507162052 | 53 | 263 | 3.0 | 13.0 | 0.00 | 0.00 | 0.00 | 43 | 1008.0 |
| 20260507161604 | 53 | 346 | 5.0 | 12.0 | 0.00 | 0.00 | 0.00 | 42 | 1008.0 |
| 20260507161056 | 52 | 360 | 3.0 | 12.0 | 0.00 | 0.00 | 0.00 | 42 | 1008.1 |
| 20260507160549 | 53 | 360 | 4.0 | 12.0 | 0.00 | 0.00 | 0.00 | 42 | 1008.1 |
| 20260507160105 | 53 | 273 | 5.0 | 12.0 | 0.00 | 0.00 | 0.00 | 43 | 1007.9 |
| 20260507155548 | 52 | 288 | 5.0 | 14.0 | 0.00 | 0.00 | 0.00 | 43 | 1008.0 |
| 20260507155052 | 52 | 302 | 3.0 | 20.0 | 0.00 | 0.00 | 0.00 | 43 | 1008.1 |
| 20260507154601 | 51 | 330 | 3.0 | 20.0 | 0.00 | 0.00 | 0.00 | 42 | 1008.1 |
| 20260507154053 | 51 | 278 | 4.0 | 15.0 | 0.00 | 0.00 | 0.00 | 43 | 1008.1 |
| 20260507153549 | 51 | 292 | 5.0 | 15.0 | 0.00 | 0.00 | 0.00 | 44 | 1008.1 |
| 20260507153104 | 51 | 336 | 4.0 | 17.0 | 0.00 | 0.00 | 0.00 | 44 | 1008.2 |
| 20260507152549 | 51 | 311 | 6.0 | 17.0 | 0.00 | 0.00 | 0.00 | 44 | 1008.2 |
| 20260507152052 | 51 | 329 | 5.0 | 14.0 | 0.00 | 0.00 | 0.00 | 43 | 1008.3 |
| 20260507151601 | 51 | 341 | 2.0 | 14.0 | 0.00 | 0.00 | 0.00 | 44 | 1008.3 |
| 20260507151049 | 51 | 323 | 5.0 | 17.0 | 0.00 | 0.00 | 0.00 | 45 | 1008.5 |
| 20260507150549 | 50 | 5 | 3.0 | 17.0 | 0.00 | 0.00 | 0.00 | 44 | 1008.5 |
| 20260507150056 | 52 | 311 | 7.0 | 18.0 | 0.00 | 0.00 | 0.00 | 43 | 1008.5 |
| 20260507145549 | 52 | 350 | 4.0 | 19.0 | 0.00 | 0.00 | 0.00 | 43 | 1008.3 |
| 20260507145048 | 52 | 5 | 6.0 | 19.0 | 0.00 | 0.00 | 0.00 | 43 | 1008.5 |
| 20260507144601 | 52 | 351 | 4.0 | 13.0 | 0.00 | 0.00 | 0.00 | 44 | 1008.3 |
| 20260507144053 | 50 | 310 | 4.0 | 17.0 | 0.00 | 0.00 | 0.00 | 46 | 1008.2 |
| 20260507143549 | 51 | 316 | 7.0 | 17.0 | 0.00 | 0.00 | 0.00 | 46 | 1008.2 |
| 20260507143109 | 51 | 304 | 4.0 | 20.0 | 0.00 | 0.00 | 0.00 | 45 | 1008.1 |
| 20260507142549 | 51 | 289 | 4.0 | 20.0 | 0.00 | 0.00 | 0.00 | 45 | 1008.1 |
| 20260507142053 | 51 | 311 | 5.0 | 18.0 | 0.00 | 0.00 | 0.00 | 45 | 1008.1 |
| 20260507141558 | 50 | 355 | 4.0 | 16.0 | 0.00 | 0.00 | 0.00 | 46 | 1008.0 |
| 20260507141049 | 50 | 348 | 4.0 | 16.0 | 0.00 | 0.00 | 0.00 | 46 | 1008.0 |
| 20260507140549 | 51 | 317 | 3.0 | 14.0 | 0.00 | 0.00 | 0.00 | 47 | 1008.1 |
| 20260507140057 | 50 | 342 | 4.0 | 14.0 | 0.00 | 0.00 | 0.00 | 49 | 1008.2 |
| 20260507135555 | 49 | 282 | 4.0 | 15.0 | 0.00 | 0.00 | 0.00 | 50 | 1008.3 |
| 20260507135052 | 49 | 219 | 4.0 | 15.0 | 0.00 | 0.00 | 0.00 | 51 | 1008.1 |
| 20260507134558 | 48 | 293 | 5.0 | 15.0 | 0.00 | 0.00 | 0.00 | 51 | 1008.2 |
| 20260507134051 | 49 | 308 | 6.0 | 15.0 | 0.00 | 0.00 | 0.00 | 52 | 1008.3 |
| 20260507133549 | 48 | 0 | 6.0 | 16.0 | 0.00 | 0.00 | 0.00 | 53 | 1008.2 |
| 20260507133056 | 48 | 287 | 6.0 | 17.0 | 0.00 | 0.00 | 0.00 | 53 | 1008.3 |
| 20260507132550 | 47 | 350 | 5.0 | 17.0 | 0.00 | 0.00 | 0.00 | 54 | 1008.3 |
| 20260507132051 | 47 | 313 | 7.0 | 17.0 | 0.00 | 0.00 | 0.00 | 54 | 1008.3 |
| 20260507131605 | 46 | 284 | 6.0 | 16.0 | 0.00 | 0.00 | 0.00 | 55 | 1008.4 |
| 20260507131049 | 45 | 261 | 5.0 | 16.0 | 0.00 | 0.00 | 0.00 | 56 | 1008.3 |
| 20260507130553 | 45 | 306 | 6.0 | 15.0 | 0.00 | 0.00 | 0.00 | 57 | 1008.3 |
| 20260507130057 | 45 | 320 | 6.0 | 15.0 | 0.00 | 0.00 | 0.00 | 57 | 1008.3 |
| 20260507125553 | 45 | 286 | 3.0 | 12.0 | 0.00 | 0.00 | 0.00 | 58 | 1008.3 |
| 20260507125054 | 44 | 348 | 5.0 | 12.0 | 0.00 | 0.00 | 0.00 | 58 | 1008.3 |
| 20260507124602 | 44 | 319 | 4.0 | 14.0 | 0.00 | 0.00 | 0.00 | 59 | 1008.3 |
| 20260507124052 | 44 | 308 | 1.0 | 14.0 | 0.00 | 0.00 | 0.00 | 59 | 1008.1 |
| 20260507123552 | 44 | 205 | 5.0 | 14.0 | 0.00 | 0.00 | 0.00 | 59 | 1008.0 |
| 20260507123100 | 43 | 298 | 2.0 | 9.0 | 0.00 | 0.00 | 0.00 | 59 | 1008.2 |
| 20260507122551 | 43 | 279 | 2.0 | 12.0 | 0.00 | 0.00 | 0.00 | 59 | 1008.1 |
| 20260507122053 | 43 | 260 | 3.0 | 12.0 | 0.00 | 0.00 | 0.00 | 59 | 1008.1 |
| 20260507121557 | 43 | 321 | 2.0 | 11.0 | 0.00 | 0.00 | 0.00 | 60 | 1008.1 |
| 20260507121053 | 42 | 0 | 3.0 | 11.0 | 0.00 | 0.00 | 0.00 | 60 | 1008.0 |
| 20260507120548 | 42 | 5 | 4.0 | 11.0 | 0.00 | 0.00 | 0.00 | 60 | 1008.1 |
| 20260507120059 | 42 | 348 | 2.0 | 20.0 | 0.00 | 0.00 | 0.00 | 60 | 1008.0 |
| 20260507115553 | 42 | 304 | 5.0 | 20.0 | 0.00 | 0.00 | 0.00 | 60 | 1008.0 |
| 20260507115051 | 42 | 279 | 3.0 | 13.0 | 0.00 | 0.00 | 0.00 | 60 | 1008.0 |
| 20260507114611 | 42 | 330 | 3.0 | 13.0 | 0.00 | 0.00 | 0.00 | 60 | 1008.0 |
| 20260507114052 | 42 | 271 | 1.0 | 15.0 | 0.00 | 0.00 | 0.00 | 60 | 1007.9 |
| 20260507113551 | 42 | 326 | 3.0 | 16.0 | 0.00 | 0.00 | 0.00 | 60 | 1007.9 |
| 20260507113130 | 42 | 284 | 3.0 | 16.0 | 0.00 | 0.00 | 0.00 | 60 | 1007.9 |
| 20260507112552 | 42 | 292 | 4.0 | 17.0 | 0.00 | 0.00 | 0.00 | 60 | 1007.8 |
| 20260507112050 | 42 | 270 | 6.0 | 17.0 | 0.00 | 0.00 | 0.00 | 60 | 1007.8 |
| 20260507111607 | 42 | 0 | 5.0 | 20.0 | 0.00 | 0.00 | 0.00 | 60 | 1007.7 |
| 20260507111052 | 42 | 306 | 3.0 | 20.0 | 0.00 | 0.00 | 0.00 | 60 | 1007.9 |
| 20260507110550 | 42 | 286 | 5.0 | 20.0 | 0.00 | 0.00 | 0.00 | 60 | 1007.6 |
| 20260507110105 | 42 | 292 | 1.0 | 13.0 | 0.00 | 0.00 | 0.00 | 60 | 1007.7 |
| 20260507105550 | 42 | 301 | 4.0 | 13.0 | 0.00 | 0.00 | 0.00 | 60 | 1007.5 |
| 20260507105052 | 42 | 284 | 2.0 | 12.0 | 0.00 | 0.00 | 0.00 | 60 | 1007.3 |
| 20260507104600 | 42 | 319 | 2.0 | 14.0 | 0.00 | 0.00 | 0.00 | 60 | 1007.4 |
| 20260507104051 | 42 | 297 | 5.0 | 14.0 | 0.00 | 0.00 | 0.00 | 60 | 1007.3 |
| 20260507103550 | 42 | 293 | 3.0 | 14.0 | 0.00 | 0.00 | 0.00 | 59 | 1007.4 |
| 20260507103106 | 42 | 355 | 3.0 | 10.0 | 0.00 | 0.00 | 0.00 | 59 | 1007.2 |
| 20260507102548 | 42 | 319 | 3.0 | 12.0 | 0.00 | 0.00 | 0.00 | 59 | 1007.2 |
| 20260507102050 | 42 | 297 | 3.0 | 12.0 | 0.00 | 0.00 | 0.00 | 60 | 1007.1 |
| 20260507101556 | 41 | 277 | 3.0 | 11.0 | 0.00 | 0.00 | 0.00 | 60 | 1007.1 |
| 20260507101055 | 41 | 297 | 3.0 | 12.0 | 0.00 | 0.00 | 0.00 | 60 | 1007.1 |
| 20260507100552 | 41 | 314 | 2.0 | 15.0 | 0.00 | 0.00 | 0.00 | 60 | 1007.1 |
| 20260507095549 | 42 | 282 | 2.0 | 14.0 | 0.00 | 0.00 | 0.00 | 59 | 1007.0 |
| 20260507095052 | 42 | 296 | 3.0 | 12.0 | 0.00 | 0.00 | 0.00 | 59 | 1006.9 |
| 20260507094559 | 42 | 284 | 4.0 | 11.0 | 0.00 | 0.00 | 0.00 | 59 | 1006.9 |
| 20260507094053 | 42 | 298 | 3.0 | 10.0 | 0.00 | 0.00 | 0.00 | 59 | 1007.0 |
| 20260507093552 | 42 | 273 | 2.0 | 10.0 | 0.00 | 0.00 | 0.00 | 59 | 1006.9 |
| 20260507093053 | 42 | 286 | 2.0 | 12.0 | 0.00 | 0.00 | 0.00 | 58 | 1006.9 |
| 20260507092552 | 42 | 317 | 2.0 | 12.0 | 0.00 | 0.00 | 0.00 | 58 | 1007.0 |
| 20260507092051 | 42 | 283 | 3.0 | 13.0 | 0.00 | 0.00 | 0.00 | 58 | 1007.0 |
| 20260507091612 | 43 | 0 | 3.0 | 13.0 | 0.00 | 0.00 | 0.00 | 57 | 1007.0 |
| 20260507091051 | 43 | 279 | 3.0 | 14.0 | 0.00 | 0.00 | 0.00 | 57 | 1006.8 |
| 20260507090549 | 43 | 311 | 3.0 | 14.0 | 0.00 | 0.00 | 0.00 | 57 | 1007.0 |
| 20260507090058 | 43 | 293 | 4.0 | 12.0 | 0.00 | 0.00 | 0.00 | 57 | 1007.0 |
| 20260507085549 | 43 | 277 | 2.0 | 12.0 | 0.00 | 0.00 | 0.00 | 57 | 1006.8 |
| 20260507085049 | 43 | 266 | 3.0 | 12.0 | 0.00 | 0.00 | 0.00 | 56 | 1006.6 |
| 20260507084609 | 43 | 309 | 2.0 | 11.0 | 0.00 | 0.00 | 0.00 | 56 | 1006.8 |
| 20260507084049 | 43 | 310 | 3.0 | 11.0 | 0.00 | 0.00 | 0.00 | 56 | 1006.7 |
| 20260507083551 | 43 | 286 | 2.0 | 11.0 | 0.00 | 0.00 | 0.00 | 56 | 1006.6 |
| 20260507083053 | 43 | 301 | 2.0 | 11.0 | 0.00 | 0.00 | 0.00 | 56 | 1006.6 |
| 20260507082550 | 44 | 300 | 3.0 | 11.0 | 0.00 | 0.00 | 0.00 | 56 | 1006.7 |
| 20260507082052 | 44 | 333 | 4.0 | 11.0 | 0.00 | 0.00 | 0.00 | 56 | 1006.6 |
| 20260507081601 | 44 | 292 | 1.0 | 11.0 | 0.00 | 0.00 | 0.00 | 56 | 1006.6 |
| 20260507081052 | 44 | 306 | 2.0 | 12.0 | 0.00 | 0.00 | 0.00 | 56 | 1006.7 |
| 20260507080552 | 44 | 318 | 3.0 | 12.0 | 0.00 | 0.00 | 0.00 | 56 | 1006.8 |
| 20260507080055 | 44 | 340 | 3.0 | 12.0 | 0.00 | 0.00 | 0.00 | 56 | 1006.9 |
| 20260507075553 | 44 | 270 | 2.0 | 11.0 | 0.00 | 0.00 | 0.00 | 56 | 1006.9 |
| 20260507075052 | 44 | 291 | 2.0 | 12.0 | 0.00 | 0.00 | 0.00 | 55 | 1007.0 |
| 20260507074603 | 44 | 333 | 4.0 | 12.0 | 0.00 | 0.00 | 0.00 | 55 | 1006.9 |
| 20260507074054 | 44 | 302 | 3.0 | 12.0 | 0.00 | 0.00 | 0.00 | 55 | 1006.8 |
| 20260507073549 | 44 | 346 | 3.0 | 14.0 | 0.00 | 0.00 | 0.00 | 55 | 1006.8 |
| 20260507073055 | 45 | 314 | 2.0 | 14.0 | 0.00 | 0.00 | 0.00 | 55 | 1006.7 |
| 20260507072552 | 45 | 317 | 5.0 | 14.0 | 0.00 | 0.00 | 0.00 | 54 | 1006.7 |
| 20260507072051 | 45 | 309 | 4.0 | 14.0 | 0.00 | 0.00 | 0.00 | 54 | 1006.8 |
| 20260507071558 | 45 | 351 | 4.0 | 13.0 | 0.00 | 0.00 | 0.00 | 54 | 1006.8 |
| 20260507071052 | 45 | 328 | 2.0 | 11.0 | 0.00 | 0.00 | 0.00 | 55 | 1006.8 |
| 20260507070552 | 45 | 287 | 3.0 | 12.0 | 0.00 | 0.00 | 0.00 | 55 | 1006.8 |
| 20260507070107 | 45 | 327 | 3.0 | 13.0 | 0.00 | 0.00 | 0.00 | 54 | 1006.8 |
| 20260507065553 | 45 | 292 | 3.0 | 13.0 | 0.00 | 0.00 | 0.00 | 54 | 1006.9 |
| 20260507065049 | 45 | 304 | 4.0 | 14.0 | 0.00 | 0.00 | 0.00 | 54 | 1006.9 |
| 20260507064610 | 46 | 300 | 5.0 | 14.0 | 0.00 | 0.00 | 0.00 | 54 | 1006.8 |
| 20260507064052 | 46 | 275 | 5.0 | 14.0 | 0.00 | 0.00 | 0.00 | 54 | 1006.8 |
| 20260507063550 | 46 | 300 | 5.0 | 14.0 | 0.00 | 0.00 | 0.00 | 54 | 1006.9 |
| 20260507063058 | 46 | 288 | 2.0 | 13.0 | 0.00 | 0.00 | 0.00 | 55 | 1007.0 |
| 20260507062550 | 46 | 290 | 2.0 | 15.0 | 0.00 | 0.00 | 0.00 | 54 | 1007.0 |
| 20260507062052 | 46 | 325 | 4.0 | 15.0 | 0.00 | 0.00 | 0.00 | 53 | 1007.0 |
| 20260507061558 | 46 | 294 | 5.0 | 15.0 | 0.00 | 0.00 | 0.00 | 53 | 1007.0 |
| 20260507061056 | 46 | 293 | 4.0 | 14.0 | 0.00 | 0.00 | 0.00 | 53 | 1007.0 |
| 20260507060555 | 47 | 321 | 5.0 | 14.0 | 0.00 | 0.00 | 0.00 | 54 | 1007.1 |
| 20260507055552 | 47 | 350 | 2.0 | 19.0 | 0.00 | 0.00 | 0.00 | 56 | 1007.1 |
| 20260507055052 | 47 | 311 | 5.0 | 19.0 | 0.00 | 0.00 | 0.00 | 60 | 1007.1 |
| 20260507054602 | 47 | 304 | 5.0 | 19.0 | 0.00 | 0.00 | 0.00 | 65 | 1007.2 |
| 20260507054052 | 47 | 331 | 4.0 | 12.0 | 0.00 | 0.00 | 0.00 | 67 | 1007.2 |
| 20260507053549 | 47 | 288 | 2.0 | 12.0 | 0.00 | 0.00 | 0.00 | 67 | 1007.2 |
| 20260507053052 | 47 | 261 | 2.0 | 12.0 | 0.00 | 0.00 | 0.00 | 67 | 1007.1 |
| 20260507052550 | 47 | 281 | 3.0 | 10.0 | 0.00 | 0.00 | 0.00 | 68 | 1007.1 |
| 20260507052049 | 48 | 279 | 3.0 | 10.0 | 0.00 | 0.00 | 0.00 | 69 | 1007.2 |
| 20260507051556 | 48 | 292 | 2.0 | 9.0 | 0.00 | 0.00 | 0.00 | 69 | 1007.1 |
| 20260507051056 | 48 | 285 | 2.0 | 8.0 | 0.00 | 0.00 | 0.00 | 70 | 1007.1 |
| 20260507050552 | 48 | 300 | 2.0 | 11.0 | 0.00 | 0.00 | 0.00 | 70 | 1007.0 |
| 20260507050054 | 48 | 271 | 2.0 | 11.0 | 0.00 | 0.00 | 0.00 | 70 | 1007.1 |
| 20260507045552 | 49 | 281 | 2.0 | 10.0 | 0.00 | 0.00 | 0.00 | 70 | 1007.1 |
| 20260507045052 | 49 | 296 | 1.0 | 10.0 | 0.00 | 0.00 | 0.00 | 70 | 1007.1 |
| 20260507044609 | 49 | 281 | 2.0 | 10.0 | 0.00 | 0.00 | 0.00 | 70 | 1007.2 |
| 20260507044052 | 49 | 295 | 2.0 | 8.0 | 0.00 | 0.00 | 0.00 | 70 | 1007.2 |
| 20260507043552 | 49 | 306 | 0.0 | 5.0 | 0.00 | 0.00 | 0.00 | 70 | 1007.2 |
| 20260507043104 | 49 | 296 | 1.0 | 5.0 | 0.00 | 0.00 | 0.00 | 71 | 1007.2 |
| 20260507042552 | 49 | 304 | 0.0 | 7.0 | 0.00 | 0.00 | 0.00 | 71 | 1007.3 |
| 20260507042049 | 49 | 0 | 1.0 | 7.0 | 0.00 | 0.00 | 0.00 | 72 | 1007.3 |
| 20260507041559 | 49 | 287 | 1.0 | 4.0 | 0.00 | 0.00 | 0.00 | 72 | 1007.4 |
| 20260507041049 | 49 | 289 | 0.0 | 6.0 | 0.00 | 0.00 | 0.00 | 72 | 1007.3 |
| 20260507040553 | 49 | 0 | 0.0 | 6.0 | 0.00 | 0.00 | 0.00 | 73 | 1007.3 |
| 20260507040057 | 49 | 271 | 0.0 | 2.0 | 0.00 | 0.00 | 0.00 | 73 | 1007.4 |
| 20260507035552 | 49 | 0 | 0.0 | 2.0 | 0.00 | 0.00 | 0.00 | 72 | 1007.5 |
| 20260507035048 | 49 | 271 | 0.0 | 2.0 | 0.00 | 0.00 | 0.00 | 72 | 1007.5 |
| 20260507034555 | 49 | 0 | 0.0 | 2.0 | 0.00 | 0.00 | 0.00 | 72 | 1007.5 |
| 20260507034053 | 49 | 271 | 0.0 | 1.0 | 0.00 | 0.00 | 0.00 | 72 | 1007.5 |
| 20260507033552 | 49 | 0 | 0.0 | 2.0 | 0.00 | 0.00 | 0.00 | 72 | 1007.6 |
| 20260507033101 | 49 | 0 | 0.0 | 2.0 | 0.00 | 0.00 | 0.00 | 72 | 1007.6 |
| 20260507032557 | 49 | 0 | 0.0 | 4.0 | 0.00 | 0.00 | 0.00 | 71 | 1007.6 |
| 20260507032053 | 50 | 271 | 0.0 | 4.0 | 0.00 | 0.00 | 0.00 | 71 | 1007.6 |
| 20260507031555 | 50 | 0 | 0.0 | 3.0 | 0.00 | 0.00 | 0.00 | 71 | 1007.7 |
| 20260507031055 | 50 | 0 | 0.0 | 3.0 | 0.00 | 0.00 | 0.00 | 71 | 1007.7 |
| 20260507030552 | 50 | 0 | 0.0 | 3.0 | 0.00 | 0.00 | 0.00 | 71 | 1007.8 |
| 20260507030101 | 50 | 270 | 0.0 | 3.0 | 0.00 | 0.00 | 0.00 | 70 | 1007.8 |
| 20260507025551 | 50 | 270 | 0.0 | 3.0 | 0.00 | 0.00 | 0.00 | 70 | 1007.8 |
| 20260507025054 | 50 | 0 | 0.0 | 3.0 | 0.00 | 0.00 | 0.00 | 70 | 1007.8 |
| 20260507024557 | 50 | 270 | 0.0 | 2.0 | 0.00 | 0.00 | 0.00 | 70 | 1007.7 |
| 20260507024051 | 50 | 0 | 0.0 | 3.0 | 0.00 | 0.00 | 0.00 | 69 | 1007.7 |
| 20260507023551 | 50 | 0 | 0.0 | 3.0 | 0.00 | 0.00 | 0.00 | 69 | 1007.7 |
| 20260507023109 | 50 | 0 | 0.0 | 4.0 | 0.00 | 0.00 | 0.00 | 69 | 1007.8 |
| 20260507022552 | 50 | 270 | 1.0 | 4.0 | 0.00 | 0.00 | 0.00 | 69 | 1007.7 |
| 20260507022051 | 50 | 0 | 1.0 | 4.0 | 0.00 | 0.00 | 0.00 | 68 | 1007.7 |
| 20260507021557 | 50 | 270 | 1.0 | 4.0 | 0.00 | 0.00 | 0.00 | 68 | 1007.7 |
| 20260507021051 | 51 | 0 | 0.0 | 3.0 | 0.00 | 0.00 | 0.00 | 68 | 1007.7 |
| 20260507020552 | 51 | 257 | 0.0 | 4.0 | 0.00 | 0.00 | 0.00 | 68 | 1007.7 |
| 20260507020100 | 51 | 257 | 0.0 | 4.0 | 0.00 | 0.00 | 0.00 | 68 | 1007.7 |
| 20260507015551 | 51 | 0 | 1.0 | 4.0 | 0.00 | 0.00 | 0.00 | 68 | 1007.7 |
| 20260507015051 | 51 | 0 | 1.0 | 5.0 | 0.00 | 0.00 | 0.00 | 68 | 1007.6 |
| 20260507014557 | 51 | 260 | 1.0 | 7.0 | 0.00 | 0.00 | 0.00 | 68 | 1007.7 |
| 20260507014052 | 51 | 247 | 2.0 | 8.0 | 0.00 | 0.00 | 0.00 | 68 | 1007.8 |
| 20260507013551 | 51 | 279 | 2.0 | 8.0 | 0.00 | 0.00 | 0.00 | 68 | 1007.7 |
| 20260507013053 | 51 | 281 | 1.0 | 7.0 | 0.00 | 0.00 | 0.00 | 68 | 1007.7 |
| 20260507012552 | 51 | 237 | 0.0 | 7.0 | 0.00 | 0.00 | 0.00 | 68 | 1007.7 |
| 20260507012053 | 51 | 236 | 2.0 | 7.0 | 0.00 | 0.00 | 0.00 | 68 | 1007.7 |
| 20260507011552 | 51 | 0 | 2.0 | 7.0 | 0.00 | 0.00 | 0.00 | 67 | 1007.7 |
| 20260507011051 | 51 | 265 | 2.0 | 7.0 | 0.00 | 0.00 | 0.00 | 66 | 1007.6 |
| 20260507010552 | 51 | 282 | 1.0 | 8.0 | 0.00 | 0.00 | 0.00 | 65 | 1007.7 |
| 20260507010058 | 51 | 284 | 2.0 | 9.0 | 0.00 | 0.00 | 0.00 | 65 | 1007.7 |
| 20260507005553 | 51 | 0 | 2.0 | 9.0 | 0.00 | 0.00 | 0.00 | 64 | 1007.6 |
| 20260507005053 | 51 | 234 | 1.0 | 9.0 | 0.00 | 0.00 | 0.00 | 65 | 1007.6 |
| 20260507004554 | 52 | 249 | 2.0 | 9.0 | 0.00 | 0.00 | 0.00 | 65 | 1007.6 |
| 20260507004052 | 51 | 238 | 1.0 | 9.0 | 0.00 | 0.00 | 0.00 | 65 | 1007.4 |
| 20260507003552 | 51 | 171 | 3.0 | 7.0 | 0.00 | 0.00 | 0.00 | 65 | 1007.4 |
| 20260507003111 | 52 | 0 | 1.0 | 8.0 | 0.00 | 0.00 | 0.00 | 65 | 1007.3 |
| 20260507002552 | 52 | 225 | 2.0 | 8.0 | 0.00 | 0.00 | 0.00 | 65 | 1007.3 |
| 20260507002052 | 52 | 246 | 2.0 | 7.0 | 0.00 | 0.00 | 0.00 | 65 | 1007.2 |
| 20260507001612 | 52 | 249 | 1.0 | 7.0 | 0.00 | 0.00 | 0.00 | 65 | 1007.2 |
| 20260507001051 | 52 | 236 | 2.0 | 7.0 | 0.00 | 0.00 | 0.00 | 64 | 1007.2 |
| 20260507000556 | 52 | 271 | 2.0 | 8.0 | 0.00 | 0.00 | 0.00 | 63 | 1007.1 |
| 20260507000058 | 52 | 229 | 3.0 | 10.0 | 0.00 | 0.00 | 0.00 | 63 | 1007.1 |
| 20260506235551 | 52 | 257 | 4.0 | 10.0 | 0.00 | 0.00 | 0.00 | 63 | 1007.0 |
| 20260506235051 | 52 | 229 | 3.0 | 10.0 | 0.00 | 0.00 | 0.00 | 62 | 1007.0 |
| 20260506234558 | 52 | 241 | 2.0 | 9.0 | 0.00 | 0.00 | 0.00 | 62 | 1007.0 |
| 20260506234055 | 52 | 240 | 2.0 | 9.0 | 0.00 | 0.00 | 0.00 | 61 | 1007.0 |
| 20260506233552 | 53 | 294 | 2.0 | 11.0 | 0.00 | 0.00 | 0.00 | 61 | 1006.9 |
| 20260506233102 | 53 | 219 | 3.0 | 11.0 | 0.00 | 0.00 | 0.00 | 60 | 1006.8 |
| 20260506232552 | 53 | 275 | 2.0 | 9.0 | 0.00 | 0.00 | 0.00 | 61 | 1006.7 |
| 20260506232052 | 53 | 250 | 4.0 | 11.0 | 0.00 | 0.00 | 0.00 | 60 | 1006.7 |
| 20260506231604 | 53 | 232 | 4.0 | 11.0 | 0.00 | 0.00 | 0.00 | 60 | 1006.7 |
| 20260506231052 | 54 | 229 | 3.0 | 10.0 | 0.00 | 0.00 | 0.00 | 59 | 1006.5 |
| 20260506230551 | 54 | 234 | 3.0 | 10.0 | 0.00 | 0.00 | 0.00 | 59 | 1006.5 |
| 20260506230104 | 54 | 231 | 2.0 | 9.0 | 0.00 | 0.00 | 0.00 | 58 | 1006.5 |
| 20260506225555 | 54 | 246 | 2.0 | 9.0 | 0.00 | 0.00 | 0.00 | 58 | 1006.5 |
| 20260506225052 | 54 | 258 | 3.0 | 10.0 | 0.00 | 0.00 | 0.00 | 57 | 1006.6 |
| 20260506224553 | 54 | 277 | 3.0 | 10.0 | 0.00 | 0.00 | 0.00 | 57 | 1006.6 |
| 20260506224052 | 55 | 248 | 2.0 | 9.0 | 0.00 | 0.00 | 0.00 | 57 | 1006.6 |
| 20260506223555 | 55 | 286 | 4.0 | 8.0 | 0.00 | 0.00 | 0.00 | 56 | 1006.8 |
| 20260506223054 | 55 | 290 | 1.0 | 8.0 | 0.00 | 0.00 | 0.00 | 56 | 1006.7 |
| 20260506222550 | 55 | 279 | 2.0 | 8.0 | 0.00 | 0.00 | 0.00 | 56 | 1006.7 |
| 20260506222052 | 55 | 238 | 3.0 | 9.0 | 0.00 | 0.00 | 0.00 | 55 | 1006.7 |
| 20260506221606 | 55 | 245 | 3.0 | 9.0 | 0.00 | 0.00 | 0.00 | 54 | 1006.7 |
| 20260506221051 | 55 | 266 | 1.0 | 7.0 | 0.00 | 0.00 | 0.00 | 54 | 1006.6 |
| 20260506220553 | 55 | 280 | 2.0 | 7.0 | 0.00 | 0.00 | 0.00 | 54 | 1006.5 |
| 20260506220056 | 55 | 267 | 2.0 | 7.0 | 0.00 | 0.00 | 0.00 | 54 | 1006.5 |
| 20260506215555 | 55 | 261 | 2.0 | 7.0 | 0.00 | 0.00 | 0.00 | 53 | 1006.6 |
| 20260506215056 | 55 | 250 | 1.0 | 6.0 | 0.00 | 0.00 | 0.00 | 54 | 1006.6 |
| 20260506214554 | 55 | 224 | 2.0 | 5.0 | 0.00 | 0.00 | 0.00 | 54 | 1006.6 |
| 20260506214051 | 55 | 221 | 1.0 | 5.0 | 0.00 | 0.00 | 0.00 | 54 | 1006.6 |
| 20260506213551 | 55 | 229 | 2.0 | 8.0 | 0.00 | 0.00 | 0.00 | 53 | 1006.6 |
| 20260506213055 | 55 | 239 | 2.0 | 8.0 | 0.00 | 0.00 | 0.00 | 53 | 1006.6 |
| 20260506212552 | 56 | 243 | 2.0 | 8.0 | 0.00 | 0.00 | 0.00 | 52 | 1006.5 |
| 20260506212055 | 56 | 237 | 2.0 | 9.0 | 0.00 | 0.00 | 0.00 | 52 | 1006.7 |
| 20260506211555 | 56 | 230 | 2.0 | 9.0 | 0.00 | 0.00 | 0.00 | 51 | 1006.6 |
| 20260506211053 | 56 | 249 | 3.0 | 9.0 | 0.00 | 0.00 | 0.00 | 51 | 1006.6 |
| 20260506210553 | 56 | 242 | 2.0 | 7.0 | 0.00 | 0.00 | 0.00 | 52 | 1006.6 |
| 20260506210058 | 56 | 247 | 2.0 | 7.0 | 0.00 | 0.00 | 0.00 | 52 | 1006.6 |
| 20260506205556 | 56 | 0 | 0.0 | 7.0 | 0.00 | 0.00 | 0.00 | 53 | 1006.5 |
| 20260506205051 | 56 | 238 | 2.0 | 6.0 | 0.00 | 0.00 | 0.00 | 52 | 1006.5 |
| 20260506204556 | 56 | 225 | 3.0 | 6.0 | 0.00 | 0.00 | 0.00 | 52 | 1006.5 |
| 20260506204051 | 56 | 217 | 1.0 | 5.0 | 0.00 | 0.00 | 0.00 | 52 | 1006.4 |
| 20260506203552 | 56 | 214 | 2.0 | 5.0 | 0.00 | 0.00 | 0.00 | 52 | 1006.3 |
| 20260506203105 | 56 | 223 | 2.0 | 8.0 | 0.00 | 0.00 | 0.00 | 52 | 1006.3 |
| 20260506202550 | 56 | 186 | 2.0 | 8.0 | 0.00 | 0.00 | 0.00 | 51 | 1006.5 |
| 20260506202050 | 57 | 209 | 3.0 | 8.0 | 0.00 | 0.00 | 0.00 | 50 | 1006.6 |
| 20260506201552 | 57 | 238 | 3.0 | 8.0 | 0.00 | 0.00 | 0.00 | 50 | 1006.5 |
| 20260506201052 | 57 | 224 | 2.0 | 5.0 | 0.00 | 0.00 | 0.00 | 50 | 1006.6 |
| 20260506200557 | 57 | 211 | 2.0 | 6.0 | 0.00 | 0.00 | 0.00 | 51 | 1006.7 |
| 20260506200057 | 57 | 0 | 2.0 | 6.0 | 0.00 | 0.00 | 0.00 | 50 | 1006.8 |